FW7769 Weather Reports


time (UTC)temp
F
wind
direction
speed
knots
gust
knots
rain 1hr
in
rain 24hr
in
rain mn
in
humidity
%
barometer
mb
20260507141543 64 0 0.0 0.0 0.00 0.00 0.00 86 1009.3
20260507140055 64 0 0.0 0.9 0.00 0.00 0.00 83 1009.3
20260507134542 65 0 0.0 6.1 0.00 0.00 0.00 82 1009.5
20260507133040 66 112 0.0 1.7 0.00 0.00 0.00 80 1009.6
20260507131539 67 0 0.0 3.5 0.00 0.00 0.00 77 1009.5
20260507130050 69 105 0.0 5.2 0.00 0.00 0.00 70 1009.7
20260507124555 70 0 0.0 8.7 0.00 0.00 0.00 67 1009.7
20260507123043 70 91 0.0 5.2 0.00 0.00 0.00 67 1009.8
20260507121540 70 0 0.0 1.7 0.00 0.00 0.00 66 1009.9
20260507120040 70 58 0.0 4.3 0.00 0.00 0.00 67 1010.1
20260507114556 70 0 0.0 4.3 0.00 0.00 0.00 68 1010.2
20260507113038 68 0 0.0 2.6 0.00 0.00 0.00 70 1010.1
20260507111538 69 0 0.0 3.5 0.00 0.00 0.00 70 1010.4
20260507110046 69 0 0.0 3.5 0.00 0.00 0.00 71 1010.4
20260507104549 69 0 0.0 7.8 0.00 0.00 0.00 70 1010.5
20260507103040 69 73 0.0 6.1 0.00 0.00 0.00 71 1010.5
20260507101538 69 0 0.0 4.3 0.00 0.00 0.00 71 1010.5
20260507100042 68 0 0.0 3.5 0.00 0.00 0.00 72 1010.3
20260507094536 68 0 0.0 6.1 0.00 0.00 0.00 72 1010.7
20260507093044 68 0 0.0 1.7 0.00 0.00 0.00 70 1010.7
20260507091544 68 0 0.0 1.7 0.00 0.00 0.00 71 1010.7
20260507090039 68 0 0.0 4.3 0.00 0.00 0.00 72 1010.6
20260507084540 67 0 0.0 6.1 0.00 0.00 0.00 72 1010.7
20260507083036 68 0 0.0 1.7 0.00 0.00 0.00 71 1010.7
20260507081543 67 0 0.0 0.9 0.00 0.00 0.00 73 1010.7
20260507080049 66 0 0.0 2.6 0.00 0.00 0.00 74 1010.7
20260507074546 66 0 0.0 1.7 0.00 0.00 0.00 74 1010.6
20260507073046 66 0 0.0 0.0 0.00 0.00 0.00 75 1010.5
20260507071545 65 0 0.0 0.9 0.00 0.00 0.00 75 1010.4
20260507070054 64 0 0.0 0.9 0.00 0.00 0.00 76 1010.2
20260507064540 62 0 0.0 0.0 0.00 0.00 0.00 80 1010.1
20260507063052 60 0 0.0 0.0 0.00 0.00 0.00 84 1010.1
20260507061546 60 0 0.0 0.0 0.00 0.00 0.00 85 1010.2
20260507060047 59 0 0.0 0.0 0.00 0.00 0.00 87 1010.2
20260507054545 58 0 0.0 0.0 0.00 0.00 0.00 88 1010.0
20260507053040 58 0 0.0 0.0 0.00 0.00 0.00 87 1010.1
20260507051540 58 0 0.0 0.0 0.00 0.00 0.00 86 1010.0
20260507050039 59 0 0.0 0.0 0.00 0.00 0.00 84 1010.0
20260507044546 58 0 0.0 0.0 0.00 0.00 0.00 87 1010.0
20260507043044 57 0 0.0 0.0 0.00 0.00 0.00 86 1009.8
20260507041544 58 0 0.0 0.0 0.00 0.00 0.00 85 1009.6
20260507040041 58 0 0.0 0.0 0.00 0.00 0.00 85 1009.7
20260507034540 59 0 0.0 0.0 0.00 0.00 0.00 83 1009.8
20260507033048 59 0 0.0 0.0 0.00 0.00 0.00 84 1009.5
20260507031537 59 0 0.0 0.0 0.00 0.00 0.00 85 1009.5
20260507030044 59 0 0.0 0.0 0.00 0.00 0.00 86 1009.6
20260507024542 59 0 0.0 0.0 0.00 0.00 0.00 86 1009.7
20260507023048 59 0 0.0 0.0 0.00 0.00 0.00 86 1009.7
20260507021539 59 0 0.0 0.0 0.00 0.00 0.00 86 1009.8
20260507020043 60 0 0.0 0.0 0.00 0.00 0.00 85 1010.1
20260507014551 61 0 0.0 0.0 0.00 0.00 0.00 84 1010.2
20260507013051 62 0 0.0 0.0 0.00 0.00 0.00 81 1010.3
20260507011544 62 0 0.0 0.0 0.00 0.00 0.00 80 1010.3
20260507010053 62 0 0.0 0.9 0.00 0.00 0.00 80 1010.1
20260507004539 62 0 0.0 0.0 0.00 0.00 0.00 80 1010.1
20260507003039 62 0 0.0 0.0 0.00 0.00 0.00 81 1010.3
20260507001555 62 0 0.0 0.0 0.00 0.00 0.00 82 1010.4
20260507000041 62 0 0.0 0.0 0.00 0.00 0.00 83 1010.5
20260506234551 62 0 0.0 0.0 0.00 0.00 0.00 83 1010.6
20260506233054 63 0 0.0 0.0 0.00 0.00 0.00 83 1010.8
20260506231550 63 0 0.0 0.0 0.00 0.00 0.00 83 1010.8
20260506230048 63 0 0.0 0.0 0.00 0.00 0.00 83 1010.9
20260506224542 63 0 0.0 0.0 0.00 0.00 0.00 83 1010.8
20260506223040 63 0 0.0 0.0 0.00 0.00 0.00 83 1010.8
20260506221556 63 0 0.0 0.0 0.00 0.00 0.00 83 1010.8
20260506220041 63 0 0.0 0.0 0.00 0.00 0.00 84 1010.7
20260506214538 63 0 0.0 0.0 0.00 0.00 0.00 84 1011.1
20260506213042 63 0 0.0 0.0 0.00 0.00 0.00 84 1011.2
20260506211544 63 0 0.0 0.0 0.00 0.00 0.00 84 1011.2
20260506210041 63 0 0.0 0.0 0.00 0.00 0.00 85 1011.2
20260506204539 63 0 0.0 0.0 0.00 0.00 0.00 85 1011.0
20260506203039 63 0 0.0 0.0 0.00 0.00 0.00 85 1010.8
20260506201543 63 0 0.0 0.0 0.00 0.00 0.00 84 1010.7
20260506200046 63 0 0.0 0.0 0.00 0.00 0.00 84 1010.6
20260506194546 64 0 0.0 0.0 0.00 0.00 0.00 83 1010.1
20260506193038 64 0 0.0 0.0 0.00 0.00 0.00 82 1010.1
20260506191539 64 0 0.0 0.0 0.00 0.00 0.00 82 1010.0
20260506190038 65 0 0.0 0.9 0.00 0.00 0.00 81 1009.8
20260506184544 65 0 0.0 1.7 0.00 0.00 0.00 79 1009.6
20260506183041 66 0 0.0 2.6 0.00 0.00 0.00 78 1009.5
20260506181539 66 82 0.0 0.9 0.00 0.00 0.00 77 1009.6
20260506180043 66 0 0.0 2.6 0.00 0.00 0.00 76 1009.4
20260506174548 66 0 0.0 3.5 0.00 0.00 0.00 75 1009.3
20260506173056 67 64 0.0 3.5 0.00 0.00 0.00 72 1009.2
20260506171549 68 0 0.0 1.7 0.00 0.00 0.00 72 1009.2
20260506170042 68 0 0.0 1.7 0.00 0.00 0.00 71 1009.2
20260506164552 69 0 0.0 5.2 0.00 0.00 0.00 70 1009.2
20260506163047 69 117 0.0 5.2 0.00 0.00 0.00 69 1008.9
20260506161551 69 110 0.0 3.5 0.00 0.00 0.00 69 1008.9
20260506160050 69 0 0.0 7.8 0.00 0.00 0.00 70 1008.9
20260506154551 70 122 1.7 9.6 0.00 0.00 0.00 68 1008.8
20260506153045 70 0 0.9 7.0 0.00 0.00 0.00 68 1008.9
20260506151549 70 143 0.9 8.7 0.00 0.00 0.00 69 1009.0
20260506150038 70 53 0.0 9.6 0.00 0.00 0.00 69 1009.1
20260506144546 70 37 0.0 8.7 0.00 0.00 0.00 69 1008.9
20260506143042 71 91 0.9 7.8 0.00 0.00 0.00 68 1009.2